Theta_e
320 321 321 322 323 323 323 323 323 323 323 323 323 323 323 323 322 322 322 319 318 318 319 319 317 316 316 319 325 327 326 323 322 326 327 327 331 331 330 332 332 335 336 335 335 335 342
318 318 319 320 320 321 322 323 323 323 324 323 323 323 323 323 323 322 322 319 318 318 320 319 317 316 316 324 326 328 326 320 322 326 328 330 330 329 329 330 331 333 334 334 334 335 346
316 316 317 317 318 319 320 321 322 323 323 323 323 323 323 323 323 322 322 320 319 318 320 319 317 316 316 323 325 326 326 325 323 326 329 330 329 329 331 329 332 332 332 333 334 335 335
314 314 315 316 316 318 319 321 321 322 322 323 322 323 323 323 323 323 322 320 318 318 320 318 316 316 316 328 326 324 326 327 325 326 329 330 328 329 330 330 330 330 330 333 334 337 336
312 312 312 313 315 317 318 320 321 321 321 322 322 322 322 323 323 323 323 320 316 320 318 317 317 326 324 328 325 323 325 327 325 327 327 328 328 328 329 326 326 329 331 333 337 338 336
310 310 311 312 314 316 318 320 321 321 322 322 322 322 322 322 323 323 322 319 318 320 320 318 320 326 326 327 324 324 326 326 327 326 326 327 327 323 320 321 326 328 330 333 339 339 336
312 312 312 314 315 317 319 321 322 323 323 323 323 323 322 322 323 323 323 320 328 327 323 324 324 326 326 326 323 325 325 325 326 326 323 325 322 321 322 321 324 328 329 330 330 330 332
315 314 315 316 317 318 320 322 323 324 324 323 323 323 323 322 323 326 322 320 326 325 324 325 326 328 330 329 324 325 326 327 325 323 323 321 321 322 323 323 323 323 325 327 328 329 329
317 316 315 316 317 319 322 324 324 324 324 323 322 323 323 322 323 327 327 326 325 325 324 326 327 328 328 326 324 324 326 327 324 323 322 320 321 323 324 324 324 323 324 326 328 327 325
316 316 314 316 318 321 323 324 324 324 324 323 322 321 323 322 324 329 329 327 327 327 321 325 330 331 329 328 325 325 326 325 323 322 321 319 322 322 322 323 322 324 324 325 326 323 322
314 314 315 318 321 322 323 324 324 324 323 323 320 319 322 323 322 325 328 327 327 327 332 331 332 331 329 327 326 325 325 326 323 323 324 323 325 324 326 326 323 323 323 325 324 322 321
314 318 321 322 323 323 323 323 323 323 323 323 319 319 321 322 323 325 326 326 327 324 331 332 330 328 325 326 327 327 325 326 326 324 323 322 325 326 325 327 327 327 325 319 317 318 319
320 322 322 322 321 321 322 321 321 322 322 322 318 320 321 322 324 326 326 327 325 329 329 332 331 326 326 327 328 324 324 323 323 324 323 324 325 326 327 327 325 326 318 320 320 321 321
322 322 322 321 321 318 319 319 319 321 322 319 320 321 322 323 323 325 326 322 331 331 333 331 331 328 328 326 326 326 326 324 323 322 321 325 327 329 327 326 325 326 320 319 324 321 322
322 321 319 320 318 316 316 317 319 321 320 318 321 322 324 325 324 326 327 324 328 331 331 331 330 329 327 327 327 325 325 325 325 322 324 324 329 330 328 328 326 327 325 320 322 319 321
320 317 319 318 316 317 319 321 321 322 317 319 323 325 328 328 324 326 323 325 327 330 329 330 330 330 333 330 326 325 325 330 328 325 325 327 329 328 330 328 328 328 325 324 318 326 328
317 316 318 316 319 320 321 320 320 319 316 320 326 330 331 328 324 327 323 324 328 330 330 330 329 331 332 332 330 329 332 331 332 331 329 328 327 330 329 330 332 329 331 327 324 321 324
313 317 316 318 320 321 320 318 317 316 317 322 324 328 329 325 325 323 322 325 329 329 330 329 328 328 332 331 332 332 333 332 333 332 334 329 325 331 333 329 330 330 334 332 332 335 329
312 317 315 319 319 320 318 317 315 314 317 322 324 330 327 326 322 321 324 327 329 328 329 328 329 328 329 330 333 332 332 331 332 330 330 329 327 328 328 327 327 329 328 327 327 325 331
313 317 315 318 319 318 318 315 314 314 318 323 325 329 329 326 326 325 325 327 330 330 329 329 328 328 329 329 327 330 332 331 330 331 330 329 324 326 329 330 327 328 331 333 327 330 329
313 317 314 316 318 317 317 314 314 315 323 325 329 328 326 326 327 324 325 327 331 329 329 329 328 328 329 327 327 328 327 326 329 326 327 325 327 328 327 327 325 331 331 337 338 338 339
315 317 315 313 315 316 316 314 313 316 322 325 323 324 325 326 328 326 325 327 330 329 328 327 326 325 323 323 324 325 323 325 327 322 324 320 324 324 321 324 324 331 330 332 336 337 335
317 317 315 313 314 316 315 313 313 314 319 322 318 321 325 328 326 323 322 327 326 328 328 325 324 322 321 321 321 321 321 322 323 321 320 322 320 320 323 322 324 325 329 329 334 333 334
321 317 316 314 313 315 314 313 313 313 319 319 315 323 326 326 324 322 323 325 324 322 324 323 324 323 322 321 321 322 321 320 319 317 317 320 321 320 323 321 325 326 324 327 333 331 330
322 319 317 315 313 315 314 313 313 312 315 319 315 318 324 324 323 323 323 321 322 324 323 322 322 321 321 321 317 320 321 322 321 320 320 318 318 321 321 321 326 328 324 324 327 330 328
323 322 319 316 312 314 314 312 313 312 315 318 317 317 324 325 319 321 324 321 318 319 320 322 322 320 321 317 318 324 326 324 326 323 319 317 317 320 321 325 327 325 324 325 325 327 327
323 323 322 319 315 312 314 312 313 312 316 320 319 317 322 325 321 321 321 321 324 323 321 322 322 321 323 316 320 324 324 324 327 325 324 320 319 322 322 326 330 325 326 326 328 324 325
323 323 323 322 318 313 314 312 313 312 316 321 321 318 318 321 321 320 321 323 322 322 319 322 323 323 320 322 321 321 320 321 321 322 320 321 321 321 319 326 331 324 325 327 324 324 324
323 323 324 323 322 316 312 313 312 312 310 312 316 316 317 321 324 320 318 318 320 319 319 324 322 322 323 321 321 320 323 321 319 325 322 325 322 323 322 324 324 324 324 324 322 323 323
Wind_Speed
12 12 12 13 14 14 15 15 16 16 17 18 18 18 18 18 17 16 14 12 9 8 7 7 7 6 6 4 3 2 5 6 11 10 11 9 11 10 3 10 17 6 2 2 7 10 12
11 12 12 12 13 14 15 16 16 17 18 18 19 19 19 19 18 17 14 12 9 7 6 6 6 6 4 3 2 2 10 8 13 11 10 9 7 24 17 9 6 14 8 6 9 16 17
11 12 12 13 13 14 15 16 17 17 18 19 19 20 20 19 19 17 14 11 8 5 5 5 6 6 8 4 3 1 6 4 12 10 11 6 11 17 14 10 13 19 7 8 9 13 6
12 12 12 13 13 14 15 16 18 19 19 20 20 20 20 20 19 17 14 10 6 4 4 5 4 6 6 1 8 7 4 2 6 8 8 4 9 16 6 14 10 4 5 3 8 9 8
12 12 12 13 13 14 15 17 18 20 21 20 21 20 20 20 19 17 13 9 4 4 4 3 3 5 6 5 10 6 9 8 6 7 5 7 8 8 10 4 6 4 5 6 5 10 4
12 12 13 13 14 15 16 17 19 21 22 22 21 21 20 20 19 16 12 6 3 4 4 4 7 7 5 3 4 13 13 11 10 3 8 6 3 2 5 5 4 4 5 6 1 5 5
12 13 13 14 14 15 16 18 19 21 22 23 22 21 20 20 18 16 9 3 4 2 7 10 8 11 9 6 8 7 9 8 16 9 3 8 3 7 13 8 9 7 7 6 5 8 5
13 13 14 14 15 16 17 19 20 22 23 24 23 21 19 18 17 11 7 1 4 8 10 16 18 21 18 7 7 9 8 7 7 6 2 5 6 14 10 11 7 7 5 7 6 7 2
13 14 14 15 16 17 18 20 21 23 23 25 23 21 19 15 13 5 5 10 5 8 5 10 14 19 13 12 8 13 15 11 3 2 4 7 12 5 7 13 11 8 3 4 7 6 5
14 14 15 16 17 19 20 21 22 24 24 25 24 22 19 14 7 4 4 9 9 8 5 6 5 6 18 13 5 20 21 12 4 10 8 7 20 8 10 8 8 4 8 5 6 5 3
14 15 16 18 19 20 22 23 24 25 25 25 23 22 16 14 10 6 4 3 4 2 4 5 5 7 12 12 1 10 23 21 6 8 3 9 8 10 5 7 5 8 5 3 3 5 5
14 15 17 20 22 23 24 24 25 25 25 25 23 22 17 14 10 2 7 2 3 5 5 3 6 6 6 8 6 6 26 14 8 4 2 9 14 6 8 4 3 1 5 9 6 3 3
15 17 20 22 24 25 25 25 26 25 25 25 22 20 17 12 2 3 4 3 4 3 6 4 5 6 6 6 4 7 8 8 6 2 5 7 8 7 7 3 7 5 7 4 5 4 6
17 20 23 25 25 25 25 25 26 25 24 26 23 17 13 8 9 7 3 4 2 5 6 4 5 4 7 7 6 8 5 5 6 4 3 1 8 3 1 8 8 5 8 5 2 2 6
20 23 25 27 25 25 25 25 25 23 23 27 20 11 5 5 14 10 3 4 7 5 4 5 5 4 4 5 6 6 9 9 8 10 8 4 5 6 4 4 10 4 2 7 4 3 3
22 25 26 26 26 25 25 24 22 22 23 24 15 5 4 7 13 13 4 5 4 5 8 4 3 4 2 5 8 7 6 5 8 12 9 3 1 3 6 5 5 2 2 4 4 3 3
23 26 26 27 25 24 22 22 21 22 22 16 7 4 7 7 17 5 3 6 6 16 11 3 2 3 4 4 4 7 7 2 7 5 11 1 3 7 6 6 4 7 6 5 5 4 1
23 25 26 26 24 21 21 20 22 24 21 13 4 2 14 18 3 1 2 5 6 5 10 4 5 6 2 6 7 8 5 4 4 3 4 3 5 1 4 6 5 7 2 3 4 4 1
23 24 25 25 22 20 20 20 22 24 22 18 9 5 20 13 2 2 6 8 10 6 2 4 6 4 4 4 4 6 6 11 16 5 2 3 3 3 11 6 8 7 6 3 1 4 1
22 23 24 23 22 20 20 20 21 21 18 15 4 3 3 17 13 2 4 7 6 2 5 5 4 5 6 9 9 5 8 10 23 13 15 6 5 6 5 4 5 6 13 11 6 4 1
21 22 23 23 21 20 19 20 20 20 14 7 4 2 5 3 5 8 4 5 6 5 10 17 8 9 3 5 5 5 8 7 9 18 11 5 3 2 2 2 6 6 8 14 12 3 6
21 21 21 22 20 19 19 19 19 18 9 8 5 6 8 6 14 6 5 8 6 5 6 4 8 9 11 6 3 2 4 3 1 9 5 5 0 3 8 6 7 5 13 8 10 5 9
20 20 21 21 19 18 18 18 19 17 11 5 9 2 4 8 9 4 5 4 5 4 12 9 9 5 8 4 9 11 13 12 9 4 2 2 3 3 2 5 4 5 7 7 4 5 1
19 20 20 20 19 17 17 16 17 16 15 13 16 5 5 4 4 4 8 8 6 4 4 12 13 6 3 10 13 10 7 8 10 9 3 4 4 3 2 4 1 6 3 6 8 7 4
17 18 19 19 18 16 15 15 15 13 10 10 17 8 4 1 7 11 19 7 11 8 4 10 5 3 7 6 4 5 6 5 6 8 10 6 4 3 3 2 3 3 5 2 3 2 2
15 16 18 18 17 15 14 14 15 13 9 5 16 15 2 2 6 10 3 10 3 4 6 3 6 5 4 3 3 2 3 4 1 6 4 8 7 5 2 2 3 4 7 15 5 2 13
13 15 16 17 17 15 13 13 14 12 8 6 11 14 3 3 9 12 6 2 4 3 1 3 8 8 9 3 3 1 1 2 2 2 2 4 4 4 2 3 1 4 11 6 2 4 16
12 13 15 16 16 15 13 12 12 12 7 4 7 11 6 2 5 6 6 5 3 6 2 6 4 7 6 5 2 2 2 1 4 3 5 3 3 0 2 3 4 12 4 4 4 15 14
12 13 14 14 15 14 13 11 11 11 8 6 5 4 3 4 3 3 3 5 4 6 5 5 4 2 2 3 1 1 3 3 3 1 5 3 4 4 4 4 3 4 8 3 11 11 16
Wind_Direction
26 23 21 20 18 15 14 13 11 9 7 5 3 0 357 353 348 343 336 328 318 310 303 304 304 311 321 295 279 77 333 211 201 222 239 276 305 313 263 316 349 72 170 4 306 311 174
18 13 11 11 8 6 5 3 3 2 360 358 357 356 354 352 348 344 337 330 320 306 300 300 296 302 300 279 30 93 353 197 191 211 227 248 300 318 281 337 3 328 304 290 286 292 162
8 7 3 2 1 0 359 357 356 356 355 353 352 352 350 349 347 344 337 330 319 303 295 293 290 291 274 214 56 345 5 77 178 198 220 267 321 317 333 332 337 326 328 318 276 267 193
360 359 358 356 355 356 354 352 351 351 350 349 348 347 347 346 345 342 336 329 315 291 288 286 287 292 257 251 190 221 231 147 186 210 230 351 335 320 320 315 328 317 330 318 280 213 214
354 353 352 352 351 350 349 349 347 346 346 345 344 343 342 342 342 340 335 327 311 292 289 261 249 292 265 205 215 216 208 199 156 192 231 312 302 316 316 41 347 356 264 246 286 198 168
351 350 349 349 347 347 346 346 345 343 342 341 340 339 338 338 339 338 331 325 318 291 288 257 249 304 238 237 197 170 180 210 208 199 268 265 285 352 346 68 266 282 342 308 210 231 200
350 349 348 347 347 345 343 343 343 342 340 339 337 336 334 334 336 335 328 290 344 301 283 248 284 261 326 151 142 176 181 205 209 212 189 253 88 237 249 218 245 294 285 277 281 298 194
349 347 347 346 344 343 342 341 341 339 339 338 335 333 331 331 333 339 349 306 29 335 297 283 269 267 257 269 171 198 207 192 156 195 188 357 249 241 240 269 265 279 243 315 294 279 145
347 347 345 343 341 340 339 338 337 337 336 336 333 330 327 327 328 345 39 48 34 319 306 286 237 239 228 193 200 202 201 210 177 225 212 186 244 218 211 263 267 274 260 279 266 326 330
347 345 344 341 339 338 336 334 334 334 333 333 331 328 326 326 322 334 59 34 8 329 43 278 201 234 224 221 267 216 201 185 204 216 230 225 259 250 266 229 192 244 263 225 318 47 281
347 346 343 340 338 335 332 330 330 330 330 329 328 324 321 312 298 271 309 358 359 290 7 155 179 179 189 185 105 199 203 204 212 251 58 259 306 313 312 264 135 226 248 321 333 338 19
350 347 344 340 336 332 330 328 327 328 328 326 325 320 311 299 288 258 219 251 335 47 269 213 155 151 130 214 250 349 182 205 232 231 272 255 271 221 215 272 209 174 24 19 34 67 358
350 346 343 339 334 331 328 326 326 327 326 321 324 313 298 274 198 158 166 296 52 138 307 192 183 161 154 191 239 152 169 209 181 98 279 326 272 260 184 268 348 76 55 350 357 7 227
349 344 341 338 336 333 329 327 326 327 328 321 328 307 285 253 201 182 189 62 128 254 256 300 150 129 179 179 236 182 164 216 258 123 42 212 325 347 184 181 192 202 146 155 238 247 275
346 343 341 340 338 334 331 328 326 329 332 325 331 311 276 199 189 187 148 85 208 226 247 341 72 104 281 251 181 161 204 215 218 165 176 170 278 321 168 156 137 266 182 192 153 161 35
344 344 343 341 338 337 335 331 329 334 337 334 341 332 186 151 167 168 86 227 249 259 310 38 74 165 189 253 170 162 160 237 242 193 153 215 356 348 329 31 23 135 229 17 12 343 318
345 345 345 343 343 342 343 340 338 338 345 344 356 359 148 165 155 149 156 234 271 284 279 88 315 20 295 20 193 174 199 286 48 52 108 202 96 299 44 14 348 11 3 44 109 117 166
346 347 347 349 350 350 349 347 345 342 354 350 356 17 160 151 102 195 192 218 305 330 356 343 39 33 32 34 9 40 63 67 68 2 62 318 128 62 153 136 72 66 39 60 106 279 185
348 350 351 355 355 355 353 352 350 345 354 0 340 303 182 182 126 277 282 280 261 263 82 41 24 27 5 51 49 15 63 47 57 64 65 325 23 32 344 1 15 34 3 26 336 51 332
350 352 355 357 358 358 357 353 354 346 351 345 5 16 196 212 240 235 300 279 291 102 72 82 17 26 42 42 14 23 21 32 43 40 30 76 59 119 154 221 245 9 48 49 87 69 356
352 353 356 358 358 359 357 356 359 353 9 37 26 347 25 286 280 260 163 264 31 21 59 28 35 40 43 61 34 34 359 355 24 23 21 84 92 120 167 56 73 68 37 64 65 302 95
353 355 357 358 358 0 359 360 5 7 20 30 26 5 339 292 312 346 354 11 60 21 48 15 83 63 55 83 108 305 22 24 315 342 35 348 282 110 355 351 51 72 30 74 87 65 79
352 355 356 359 1 1 2 3 6 18 29 27 11 17 319 325 332 63 325 41 21 82 36 74 92 87 44 346 320 292 278 265 249 201 251 72 116 88 298 337 36 32 1 16 102 26 202
350 354 355 357 2 3 2 6 10 13 24 36 25 19 9 313 10 351 27 73 67 58 106 56 62 85 315 322 304 295 273 260 259 266 189 137 101 92 177 30 36 175 347 67 105 77 85
346 352 355 357 0 3 3 5 9 13 15 27 29 31 24 310 333 3 15 17 30 22 61 94 71 24 328 336 37 14 351 11 58 57 53 87 99 59 114 135 88 359 344 339 138 131 320
342 348 353 355 358 0 4 3 7 12 23 35 34 30 17 338 336 355 28 27 39 339 1 88 25 346 333 77 69 126 185 202 46 144 69 66 78 104 78 142 225 240 318 325 125 182 19
335 343 349 353 355 358 360 1 4 10 22 50 39 27 30 349 27 34 37 339 13 9 94 344 344 357 23 45 51 105 295 124 81 73 9 22 16 94 45 119 303 338 326 359 101 269 343
318 334 344 349 351 354 355 357 1 5 15 50 26 6 21 335 37 27 30 29 58 56 102 329 41 3 27 49 63 308 72 323 71 344 132 116 109 73 62 96 251 352 23 95 311 333 343
302 318 331 343 345 347 351 351 355 2 4 8 21 359 272 234 263 354 292 278 97 29 359 38 104 131 70 77 16 101 26 31 138 156 11 42 164 168 147 203 166 86 98 45 358 348 336